Location: Aranbee
(34.0885°N, 118.2342°W)
Time: 17:26:17
(UTC+00:00)

A-11 Canister half - Pass Details

Date: 04 August 2021
Orbit: 1514 x 1685 km, 47.2° (Epoch: 17 September)

Event Time Altitude Azimuth Distance (km) Brightness Sun altitude
Rises 04:04:31 0° 298° (WNW) 4,862 13.6 -14.2°
Reaches altitude 10° 04:07:54 10° 305° (NW) 3,896 12.5 -14.8°
Maximum altitude 04:17:21 44° 15° (NNE) 2,203 9.9 -16.5°
Enters shadow 04:26:47 10° 85° (E) 3,912 10.7 -18.0°
